TimeCST,TemperatureF,Dew PointF,Humidity,Sea Level PressureIn,VisibilityMPH,Wind Direction,Wind SpeedMPH,Gust SpeedMPH,PrecipitationIn,Events,Conditions,WindDirDegrees,DateUTC
12:15 AM,33.8,23.0,65,30.14,10.0,WNW,5.8,-,N/A,,Overcast,290,2013-11-08 06:15:00
12:35 AM,33.8,24.8,70,30.14,10.0,WNW,3.5,-,N/A,,Mostly Cloudy,290,2013-11-08 06:35:00
12:55 AM,32.0,21.2,64,30.14,10.0,West,4.6,-,N/A,,Overcast,280,2013-11-08 06:55:00
1:15 AM,32.0,23.0,69,30.15,10.0,West,3.5,-,N/A,,Overcast,270,2013-11-08 07:15:00
1:35 AM,32.0,24.8,75,30.15,10.0,West,3.5,-,N/A,,Overcast,270,2013-11-08 07:35:00
1:55 AM,32.0,23.0,69,30.15,10.0,West,4.6,-,N/A,,Overcast,270,2013-11-08 07:55:00
2:15 AM,32.0,23.0,69,30.16,10.0,West,3.5,-,N/A,,Overcast,260,2013-11-08 08:15:00
2:35 AM,32.0,24.8,75,30.16,10.0,West,4.6,-,N/A,,Overcast,270,2013-11-08 08:35:00
2:55 AM,32.0,24.8,75,30.16,10.0,West,3.5,-,N/A,,Overcast,280,2013-11-08 08:55:00
3:15 AM,33.8,24.8,70,30.16,10.0,WNW,3.5,-,N/A,,Overcast,290,2013-11-08 09:15:00
3:35 AM,33.8,24.8,70,30.17,10.0,West,3.5,-,N/A,,Overcast,280,2013-11-08 09:35:00
3:55 AM,33.8,23.0,65,30.17,10.0,West,4.6,-,N/A,,Overcast,270,2013-11-08 09:55:00
4:15 AM,33.8,23.0,65,30.18,10.0,West,4.6,-,N/A,,Overcast,280,2013-11-08 10:15:00
4:35 AM,33.8,21.2,60,30.18,10.0,WNW,5.8,-,N/A,,Overcast,290,2013-11-08 10:35:00
4:55 AM,32.0,21.2,64,30.18,10.0,West,4.6,-,N/A,,Overcast,280,2013-11-08 10:55:00
5:15 AM,32.0,21.2,64,30.18,10.0,West,4.6,-,N/A,,Mostly Cloudy,280,2013-11-08 11:15:00
5:35 AM,30.2,19.4,64,30.19,10.0,West,3.5,-,N/A,,Partly Cloudy,280,2013-11-08 11:35:00
5:55 AM,30.2,21.2,69,30.19,10.0,West,3.5,-,N/A,,Clear,270,2013-11-08 11:55:00
6:15 AM,28.4,21.2,74,30.19,10.0,West,3.5,-,N/A,,Clear,270,2013-11-08 12:15:00
6:35 AM,28.4,21.2,74,30.20,10.0,West,3.5,-,N/A,,Clear,270,2013-11-08 12:35:00
6:55 AM,28.4,21.2,74,30.20,10.0,Calm,Calm,-,N/A,,Clear,0,2013-11-08 12:55:00
7:15 AM,28.4,21.2,74,30.21,10.0,West,3.5,-,N/A,,Clear,270,2013-11-08 13:15:00
7:35 AM,28.4,23.0,80,30.21,10.0,West,3.5,-,N/A,,Clear,260,2013-11-08 13:35:00
7:55 AM,30.2,24.8,80,30.22,10.0,West,4.6,-,N/A,,Clear,270,2013-11-08 13:55:00
8:15 AM,30.2,24.8,80,30.22,10.0,West,4.6,-,N/A,,Clear,280,2013-11-08 14:15:00
8:35 AM,32.0,24.8,75,30.22,10.0,West,4.6,-,N/A,,Clear,260,2013-11-08 14:35:00
8:55 AM,33.8,26.6,75,30.22,10.0,West,4.6,-,N/A,,Clear,280,2013-11-08 14:55:00
9:15 AM,35.6,24.8,65,30.21,10.0,West,4.6,-,N/A,,Clear,270,2013-11-08 15:15:00
9:35 AM,35.6,24.8,65,30.21,10.0,WSW,3.5,-,N/A,,Clear,240,2013-11-08 15:35:00
9:55 AM,37.4,21.2,52,30.21,10.0,SW,6.9,-,N/A,,Clear,230,2013-11-08 15:55:00
10:15 AM,37.4,19.4,48,30.21,10.0,West,5.8,-,N/A,,Clear,260,2013-11-08 16:15:00
10:35 AM,39.2,21.2,49,30.21,10.0,SSW,8.1,-,N/A,,Clear,200,2013-11-08 16:35:00
10:55 AM,39.2,21.2,49,30.20,10.0,WSW,9.2,-,N/A,,Clear,240,2013-11-08 16:55:00
11:15 AM,39.2,21.2,49,30.19,10.0,SSW,9.2,16.1,N/A,,Clear,210,2013-11-08 17:15:00
11:35 AM,39.2,21.2,49,30.18,10.0,WSW,9.2,-,N/A,,Clear,240,2013-11-08 17:35:00
11:55 AM,39.2,23.0,52,30.16,10.0,SSW,8.1,-,N/A,,Clear,200,2013-11-08 17:55:00
12:15 PM,39.2,26.6,61,30.15,10.0,SSW,9.2,-,N/A,,Clear,210,2013-11-08 18:15:00
12:35 PM,39.2,24.8,56,30.14,10.0,West,6.9,-,N/A,,Clear,260,2013-11-08 18:35:00
12:55 PM,39.2,26.6,61,30.14,10.0,WSW,6.9,-,N/A,,Clear,250,2013-11-08 18:55:00
1:15 PM,39.2,26.6,61,30.13,9.0,WSW,6.9,-,N/A,,Clear,240,2013-11-08 19:15:00
1:35 PM,37.4,26.6,65,30.13,9.0,West,5.8,-,N/A,,Clear,260,2013-11-08 19:35:00
1:55 PM,37.4,26.6,65,30.13,8.0,SW,10.4,-,N/A,,Clear,230,2013-11-08 19:55:00
2:15 PM,35.6,26.6,70,30.13,8.0,SW,10.4,-,N/A,,Clear,230,2013-11-08 20:15:00
2:35 PM,35.6,26.6,70,30.12,8.0,SW,8.1,-,N/A,,Clear,230,2013-11-08 20:35:00
2:55 PM,35.6,24.8,65,30.12,8.0,WSW,4.6,-,N/A,,Clear,240,2013-11-08 20:55:00
3:15 PM,35.6,26.6,70,30.11,8.0,SW,3.5,-,N/A,,Clear,220,2013-11-08 21:15:00
3:35 PM,35.6,28.4,75,30.11,8.0,SSW,8.1,-,N/A,,Clear,200,2013-11-08 21:35:00
3:55 PM,35.6,28.4,75,30.10,7.0,SW,5.8,-,N/A,,Mostly Cloudy,230,2013-11-08 21:55:00
4:15 PM,35.6,28.4,75,30.09,7.0,South,3.5,-,N/A,,Overcast,180,2013-11-08 22:15:00
4:35 PM,35.6,28.4,75,30.08,7.0,Calm,Calm,-,N/A,,Scattered Clouds,0,2013-11-08 22:35:00
4:55 PM,35.6,28.4,75,30.07,8.0,SSE,3.5,-,N/A,,Partly Cloudy,160,2013-11-08 22:55:00
5:15 PM,37.4,28.4,70,30.06,8.0,SSE,3.5,-,N/A,,Mostly Cloudy,160,2013-11-08 23:15:00
5:35 PM,37.4,30.2,75,30.06,9.0,South,4.6,-,N/A,,Mostly Cloudy,180,2013-11-08 23:35:00
5:55 PM,39.2,28.4,65,30.05,10.0,South,10.4,-,N/A,,Scattered Clouds,170,2013-11-08 23:55:00
6:15 PM,39.2,30.2,70,30.04,10.0,South,9.2,-,N/A,,Mostly Cloudy,180,2013-11-09 00:15:00
6:35 PM,39.2,30.2,70,30.04,10.0,South,10.4,-,N/A,,Overcast,190,2013-11-09 00:35:00
6:55 PM,39.2,30.2,70,30.04,10.0,South,9.2,-,N/A,,Overcast,190,2013-11-09 00:55:00
7:15 PM,39.2,32.0,75,30.03,10.0,South,10.4,17.3,N/A,,Overcast,190,2013-11-09 01:15:00
7:35 PM,39.2,32.0,75,30.03,10.0,South,9.2,19.6,N/A,,Overcast,190,2013-11-09 01:35:00
7:55 PM,39.2,32.0,75,30.02,10.0,South,10.4,16.1,N/A,,Overcast,180,2013-11-09 01:55:00
8:15 PM,41.0,32.0,70,29.99,10.0,South,10.4,-,N/A,,Overcast,180,2013-11-09 02:15:00
8:35 PM,41.0,32.0,70,30.00,10.0,SSW,10.4,17.3,N/A,,Mostly Cloudy,200,2013-11-09 02:35:00
8:55 PM,41.0,33.8,76,29.99,10.0,South,9.2,-,N/A,,Overcast,180,2013-11-09 02:55:00
9:15 PM,42.8,35.6,76,29.97,10.0,South,10.4,-,N/A,,Overcast,180,2013-11-09 03:15:00
9:35 PM,42.8,35.6,76,29.95,10.0,South,13.8,20.7,N/A,,Mostly Cloudy,170,2013-11-09 03:35:00
9:55 PM,42.8,35.6,76,29.94,9.0,SSE,17.3,21.9,N/A,,Overcast,160,2013-11-09 03:55:00
10:15 PM,44.6,35.6,71,29.93,10.0,South,18.4,24.2,N/A,,Overcast,180,2013-11-09 04:15:00
10:35 PM,44.6,35.6,71,29.91,10.0,South,15.0,25.3,N/A,,Overcast,180,2013-11-09 04:35:00
10:55 PM,44.6,37.4,76,29.89,10.0,South,16.1,23.0,N/A,,Overcast,180,2013-11-09 04:55:00
11:15 PM,42.8,37.4,81,29.87,9.0,South,15.0,26.5,N/A,,Overcast,180,2013-11-09 05:15:00
11:35 PM,42.8,37.4,81,29.85,8.0,South,13.8,29.9,0.01,,Overcast,190,2013-11-09 05:35:00
11:55 PM,42.8,37.4,81,29.84,9.0,South,11.5,19.6,0.03,,Overcast,190,2013-11-09 05:55:00